Temp
4 7 7 7 7 7 6 5 9 5 5 7 9 9 11 9 10 9 9 9 10 11 11 11 11 11 11 10 10 11 12 12 11 12 11 11 11 13 14 15 15 16 17 16
3 4 7 7 7 6 6 7 7 4 4 9 11 11 10 10 10 10 10 10 11 11 11 10 11 11 10 9 11 11 11 12 11 11 12 11 12 13 12 14 15 15 16 16
3 4 6 6 6 7 6 7 9 3 3 7 9 11 11 10 9 10 10 10 11 11 11 11 11 11 10 9 10 8 9 12 12 11 12 12 12 12 12 13 14 15 17 17
3 3 5 6 6 6 5 6 10 8 10 10 10 10 11 10 10 9 9 11 10 11 11 11 11 10 10 9 9 10 11 11 10 11 10 10 11 12 13 13 15 15 15 16
3 3 3 6 6 6 5 8 9 7 10 9 10 9 11 10 11 10 10 10 11 10 10 11 10 10 10 12 10 11 10 10 10 9 10 10 10 13 13 12 13 13 14 15
3 3 3 5 6 6 4 5 7 7 9 10 11 12 12 10 10 10 9 9 10 10 10 8 8 8 8 8 9 10 10 10 10 11 10 11 11 13 13 13 13 14 14 16
3 3 3 3 5 5 4 5 6 8 11 11 12 10 10 10 9 9 9 8 9 7 6 7 7 8 8 9 8 8 10 10 9 10 11 10 14 10 11 14 14 14 15 14
3 3 3 2 4 4 4 5 6 7 10 11 11 9 10 8 7 8 8 7 6 6 7 9 10 10 9 9 8 9 9 11 11 10 12 14 13 10 11 12 15 14 13 14
3 3 3 2 3 4 4 5 5 6 8 12 9 10 9 11 10 8 7 5 5 5 9 9 10 11 11 10 8 7 8 9 11 11 11 13 13 10 9 11 14 12 11 12
3 3 3 3 2 3 4 5 5 5 7 9 7 10 10 9 9 10 7 5 5 5 9 9 10 11 8 10 10 8 9 9 10 11 11 13 11 10 9 13 13 10 9 9
4 3 3 3 2 2 3 4 5 5 6 7 7 6 7 7 8 11 6 7 6 7 8 9 11 9 10 9 10 10 10 10 10 11 11 11 9 8 12 11 9 9 8 7
4 3 3 3 3 2 2 3 5 5 4 5 6 6 6 7 7 7 5 7 8 9 9 9 9 9 8 10 12 7 9 11 12 12 13 11 9 10 9 9 10 8 8 6
4 4 3 3 3 2 2 3 4 4 4 5 5 5 6 6 6 6 7 6 6 6 6 8 9 8 9 10 10 10 9 8 9 9 13 11 10 9 8 8 8 8 8 7
5 4 3 3 3 3 2 2 3 4 4 6 5 5 4 5 5 5 5 5 6 6 5 7 8 9 7 10 8 8 9 7 10 10 12 11 10 9 9 8 7 7 8 7
5 4 3 3 3 2 3 2 2 3 4 6 5 4 4 3 4 4 4 4 4 5 6 6 8 7 6 7 5 7 7 9 10 13 12 12 9 7 8 7 7 7 7 7
3 4 3 2 2 3 2 2 3 3 3 4 6 3 2 2 2 3 3 3 3 4 6 7 6 4 5 7 9 12 9 9 10 11 8 8 8 8 8 8 7 7 6 6
2 3 3 2 2 3 3 4 4 3 3 4 5 4 0 0 1 1 2 2 2 3 5 5 6 4 3 6 8 12 10 8 8 7 8 7 7 7 7 7 6 6 5 5
1 2 3 2 2 2 3 3 4 3 3 4 3 3 1 0 2 2 1 2 2 2 4 2 4 3 3 5 8 9 8 8 7 6 7 7 7 7 6 6 5 5 5 5
1 2 3 2 2 2 2 3 3 2 3 3 2 4 4 0 0 1 1 1 3 1 3 4 2 5 4 7 9 9 8 7 7 5 5 6 5 5 5 5 5 5 4 4
0 2 2 1 2 2 2 2 1 1 1 1 2 2 2 1 1 2 2 1 4 3 4 0 2 4 6 7 7 6 7 7 7 5 3 4 4 5 5 5 4 4 4 3
-0 -0 -0 1 1 2 1 -0 0 0 1 1 2 2 1 0 2 3 2 2 3 3 3 3 4 4 6 5 6 5 4 5 6 6 6 7 6 5 5 4 4 4 4 3
-1 -0 -1 -0 0 -0 0 1 0 1 3 0 0 1 0 0 1 2 0 2 1 4 0 2 4 5 6 6 5 5 5 3 4 6 6 6 6 6 5 5 4 4 3 3
-1 -1 -1 -1 -1 1 2 2 2 2 1 -1 -1 -0 -0 -0 -0 -0 1 1 3 1 1 3 4 5 5 5 5 5 5 4 4 5 5 5 5 5 5 4 4 3 3 3
-2 -1 0 0 1 1 2 2 3 -2 -0 -1 0 -1 -0 -1 -0 -0 2 1 1 1 2 3 5 2 3 4 4 4 4 4 4 4 4 4 5 4 4 4 3 3 3 3
-2 -1 -0 0 -1 -1 -2 -2 -2 -2 -1 -1 -0 -1 -0 -0 -0 0 0 -1 1 2 4 4 2 2 2 3 4 4 4 4 4 4 4 4 4 4 3 3 3 3 3 2
-2 -2 -1 -1 -1 -0 -1 -2 -2 -2 -2 -1 -0 0 1 1 1 0 1 2 3 4 2 2 2 2 3 3 3 4 4 4 4 4 3 4 3 3 3 2 2 2 2 2
-4 -2 -3 -2 -2 -2 -2 -2 -2 -2 -2 0 -0 1 2 -1 1 1 2 2 2 1 1 2 2 2 2 3 4 4 4 4 4 3 3 3 3 3 2 2 2 2 2 2
Height
1495 1495 1497 1498 1499 1498 1498 1500 1498 1498 1499 1500 1493 1491 1486 1488 1485 1487 1487 1485 1480 1475 1472 1469 1466 1466 1464 1467 1467 1461 1459 1453 1455 1454 1458 1458 1455 1447 1442 1438 1439 1431 1428 1436
1491 1491 1494 1495 1497 1497 1498 1498 1497 1496 1498 1490 1485 1485 1486 1486 1484 1483 1483 1482 1480 1477 1474 1473 1467 1467 1468 1468 1467 1465 1462 1454 1458 1457 1457 1456 1453 1451 1452 1444 1440 1436 1435 1438
1487 1487 1489 1492 1494 1495 1496 1497 1494 1496 1496 1491 1487 1482 1481 1481 1483 1482 1482 1480 1479 1477 1472 1471 1468 1466 1468 1469 1467 1467 1465 1456 1455 1456 1453 1450 1452 1451 1450 1449 1445 1440 1433 1434
1483 1484 1485 1488 1491 1492 1494 1493 1488 1486 1484 1483 1483 1483 1480 1478 1479 1481 1481 1476 1477 1475 1471 1467 1467 1467 1466 1468 1468 1467 1465 1460 1461 1457 1459 1457 1454 1450 1450 1451 1444 1444 1444 1439
1478 1480 1481 1483 1487 1488 1491 1489 1487 1486 1482 1483 1481 1481 1475 1476 1475 1478 1475 1476 1473 1474 1473 1469 1469 1469 1466 1462 1467 1465 1469 1465 1461 1461 1459 1459 1458 1449 1449 1450 1449 1450 1446 1443
1473 1475 1477 1480 1483 1484 1488 1484 1484 1486 1479 1479 1477 1472 1472 1474 1476 1476 1476 1476 1474 1472 1472 1474 1473 1472 1471 1470 1467 1464 1466 1464 1462 1453 1459 1457 1456 1443 1444 1445 1447 1444 1446 1438
1468 1470 1473 1475 1478 1480 1483 1482 1483 1484 1474 1476 1472 1473 1474 1474 1476 1475 1475 1476 1475 1475 1474 1474 1473 1472 1470 1468 1468 1468 1464 1463 1466 1459 1457 1457 1437 1443 1441 1439 1440 1442 1439 1443
1462 1465 1469 1471 1473 1477 1479 1479 1481 1481 1474 1471 1471 1472 1472 1474 1476 1477 1476 1476 1476 1476 1476 1471 1466 1465 1467 1464 1468 1467 1467 1461 1458 1458 1448 1435 1436 1444 1443 1441 1434 1437 1440 1441
1456 1461 1465 1467 1469 1473 1475 1476 1477 1478 1477 1465 1470 1469 1471 1469 1470 1474 1475 1475 1475 1477 1475 1471 1465 1455 1454 1458 1464 1468 1467 1464 1460 1456 1454 1441 1436 1443 1444 1444 1437 1440 1442 1442
1450 1456 1460 1463 1467 1469 1471 1472 1474 1476 1475 1469 1470 1468 1468 1469 1469 1468 1473 1475 1476 1477 1470 1467 1463 1456 1464 1456 1455 1462 1462 1460 1459 1455 1452 1437 1439 1443 1445 1442 1444 1442 1443 1443
1445 1450 1455 1459 1463 1465 1467 1469 1470 1472 1472 1468 1467 1467 1468 1467 1469 1465 1472 1474 1474 1476 1472 1467 1460 1462 1458 1459 1453 1454 1454 1454 1455 1452 1452 1448 1441 1445 1441 1443 1444 1444 1443 1443
1439 1444 1449 1454 1458 1461 1464 1467 1467 1468 1470 1467 1465 1464 1465 1465 1466 1468 1469 1469 1468 1468 1466 1466 1465 1463 1463 1456 1444 1459 1455 1448 1442 1445 1436 1438 1440 1440 1441 1442 1443 1444 1444 1443
1433 1438 1444 1449 1454 1457 1461 1463 1464 1465 1467 1465 1462 1461 1461 1462 1463 1465 1467 1467 1467 1467 1467 1467 1465 1463 1461 1453 1449 1450 1451 1452 1449 1448 1433 1437 1439 1440 1441 1441 1443 1443 1443 1444
1426 1431 1438 1444 1449 1453 1457 1459 1461 1462 1465 1462 1457 1456 1458 1458 1459 1461 1464 1465 1466 1467 1467 1467 1464 1461 1462 1453 1454 1453 1447 1451 1444 1441 1434 1436 1436 1437 1439 1440 1441 1442 1443 1444
1419 1425 1432 1439 1445 1450 1454 1456 1457 1459 1463 1460 1457 1455 1456 1456 1457 1458 1461 1463 1465 1467 1467 1466 1462 1461 1461 1458 1458 1446 1441 1437 1438 1428 1430 1431 1434 1435 1436 1438 1439 1440 1442 1444
1416 1422 1427 1434 1440 1446 1451 1453 1453 1454 1457 1462 1456 1455 1453 1454 1455 1457 1459 1461 1463 1465 1465 1463 1461 1461 1462 1455 1443 1428 1429 1430 1431 1431 1432 1433 1434 1435 1436 1437 1439 1440 1442 1444
1415 1420 1425 1431 1436 1441 1445 1447 1446 1447 1454 1458 1456 1452 1453 1454 1454 1456 1458 1460 1462 1464 1464 1462 1460 1460 1460 1454 1439 1424 1425 1427 1429 1430 1432 1433 1434 1435 1435 1436 1438 1440 1442 1445
1413 1417 1423 1428 1434 1438 1440 1443 1443 1446 1451 1453 1452 1451 1455 1454 1454 1456 1457 1460 1461 1462 1461 1461 1459 1459 1457 1446 1421 1422 1423 1424 1425 1427 1429 1431 1432 1433 1435 1436 1439 1441 1443 1445
1412 1414 1419 1425 1431 1434 1435 1440 1444 1447 1451 1449 1449 1445 1445 1451 1453 1454 1458 1458 1459 1460 1458 1457 1458 1449 1442 1419 1418 1419 1420 1421 1422 1423 1426 1429 1431 1432 1433 1435 1437 1439 1442 1445
1413 1414 1417 1421 1423 1430 1436 1438 1442 1445 1444 1445 1443 1442 1445 1450 1452 1454 1457 1458 1455 1455 1453 1455 1451 1434 1419 1413 1413 1416 1417 1418 1419 1421 1424 1426 1428 1431 1433 1435 1438 1440 1443 1446
1412 1413 1415 1419 1423 1428 1432 1434 1437 1438 1438 1436 1435 1437 1442 1447 1448 1448 1454 1454 1454 1451 1450 1451 1439 1426 1410 1407 1408 1409 1411 1415 1417 1419 1421 1423 1426 1428 1431 1434 1437 1440 1443 1446
1414 1414 1415 1420 1421 1423 1428 1428 1430 1430 1425 1429 1431 1434 1437 1442 1444 1448 1454 1452 1454 1445 1452 1450 1434 1411 1406 1407 1407 1407 1407 1410 1413 1417 1420 1421 1423 1426 1428 1431 1435 1438 1442 1445
1414 1415 1416 1416 1419 1418 1416 1415 1416 1416 1419 1423 1427 1432 1434 1440 1443 1446 1450 1450 1446 1450 1448 1435 1418 1408 1407 1407 1407 1408 1408 1410 1413 1416 1420 1422 1424 1426 1429 1431 1435 1439 1442 1445
1416 1415 1414 1415 1413 1413 1410 1409 1410 1414 1415 1418 1423 1428 1433 1436 1439 1441 1442 1447 1448 1445 1441 1424 1411 1411 1409 1408 1408 1409 1410 1411 1414 1417 1419 1422 1424 1426 1428 1432 1435 1438 1441 1445
1415 1415 1413 1413 1415 1415 1415 1415 1415 1415 1417 1418 1423 1428 1431 1434 1436 1437 1442 1446 1438 1431 1418 1413 1413 1410 1408 1407 1408 1409 1410 1411 1413 1416 1418 1421 1423 1426 1429 1432 1435 1439 1442 1444
1416 1416 1416 1416 1415 1415 1416 1416 1416 1416 1418 1419 1422 1424 1426 1426 1427 1432 1427 1425 1419 1414 1417 1416 1413 1410 1408 1407 1408 1409 1410 1411 1413 1415 1417 1420 1422 1425 1428 1432 1435 1438 1441 1444
1416 1416 1416 1417 1417 1417 1417 1417 1417 1417 1419 1418 1419 1418 1416 1425 1422 1421 1419 1415 1415 1417 1417 1415 1414 1411 1409 1407 1407 1408 1410 1411 1413 1414 1417 1419 1422 1424 1428 1430 1433 1437 1439 1441
Wind_Speed
16 15 11 9 5 4 2 2 3 5 5 4 3 4 2 1 4 6 5 5 7 7 6 6 4 5 3 5 7 6 5 4 2 2 2 4 6 7 9 3 2 1 3 4
17 16 13 10 6 2 4 3 2 6 7 3 4 3 4 5 5 6 3 4 5 3 5 5 3 2 2 3 3 7 7 3 3 3 3 2 3 2 2 7 3 2 4 5
19 17 15 12 8 4 7 2 3 2 7 8 5 5 6 5 5 7 5 7 5 6 7 5 6 4 1 2 2 5 3 4 6 4 2 3 3 4 2 5 3 2 5 7
20 17 16 14 11 6 8 5 3 2 3 7 8 2 3 6 4 6 5 4 9 6 5 6 5 3 3 4 2 2 3 5 4 2 3 2 2 4 5 5 5 4 5 5
21 18 16 15 13 8 13 4 4 2 5 3 6 6 4 7 5 4 5 7 3 5 7 6 5 3 3 3 2 2 1 4 3 2 0 3 4 7 7 8 7 7 7 10
23 20 18 14 14 11 8 7 7 2 3 4 5 5 4 4 4 5 4 3 5 6 4 5 7 4 2 2 3 4 1 2 4 1 1 2 6 14 12 6 7 7 7 3
25 22 19 15 16 14 12 7 5 4 4 6 6 2 3 5 7 5 1 4 4 1 2 3 2 2 3 3 1 1 3 5 2 3 3 4 1 4 4 12 7 12 8 0
26 24 21 18 16 15 14 12 7 3 6 6 7 9 5 3 3 4 4 3 2 3 3 3 4 4 4 5 1 2 3 4 2 3 4 9 5 3 4 6 2 10 12 10
26 27 23 19 17 15 14 12 12 5 5 3 4 4 6 4 5 3 3 2 3 3 2 3 3 2 2 2 4 2 2 5 4 2 3 3 4 4 2 1 4 3 1 4
25 27 25 21 18 15 14 12 13 8 5 5 4 4 3 3 2 1 3 4 3 3 3 3 3 2 1 2 3 4 3 4 8 7 3 6 5 6 4 4 3 1 2 4
25 28 27 23 19 17 14 15 13 14 5 7 7 7 3 3 4 3 5 4 3 3 3 2 1 3 1 3 0 2 6 5 4 5 5 5 9 5 3 4 3 2 2 2
28 29 29 25 20 16 14 14 12 14 10 7 7 12 13 11 6 2 6 2 2 3 3 2 1 3 1 3 1 2 3 3 2 4 2 2 10 1 3 2 4 3 3 3
33 29 28 27 22 18 15 14 10 11 6 10 12 10 14 14 13 10 4 3 4 2 4 2 2 4 1 2 3 2 5 5 3 3 4 11 11 10 7 4 2 2 2 4
38 30 31 28 24 20 15 14 12 13 3 5 3 7 9 11 13 12 12 6 3 4 3 2 2 3 2 2 2 3 1 7 5 6 11 7 8 8 8 11 11 8 5 6
33 34 32 30 26 21 16 14 14 14 9 4 1 4 9 8 9 11 11 8 5 3 2 3 2 1 2 2 2 5 10 6 6 2 3 2 5 5 7 6 7 7 7 8
22 20 28 31 25 22 16 7 17 19 18 3 2 3 4 7 8 7 8 8 6 3 3 3 2 3 2 3 3 7 15 11 13 1 4 5 7 4 2 3 5 7 8 7
18 24 25 31 25 25 20 5 3 16 17 4 3 2 2 6 7 5 4 7 3 3 2 3 2 3 3 3 5 4 6 11 11 9 6 3 5 2 4 5 7 9 10 10
5 28 25 21 24 19 22 9 2 15 18 4 2 2 4 8 4 4 6 4 4 4 2 2 3 2 4 6 14 13 9 8 10 12 12 7 5 6 6 7 9 11 11 11
6 16 30 23 21 16 11 17 7 13 6 3 3 3 3 9 3 4 3 3 3 3 3 3 2 4 7 10 11 11 9 7 5 14 14 11 8 8 9 10 12 13 14 14
6 24 11 7 11 10 16 12 9 10 8 6 4 4 3 6 5 3 4 2 2 2 3 3 4 5 18 26 18 10 8 12 10 12 10 13 13 13 12 12 12 11 14 15
4 5 4 11 22 14 6 6 5 7 3 8 6 10 5 9 3 3 4 2 2 3 2 3 3 4 4 6 6 10 16 17 13 11 6 7 8 13 14 14 14 14 15 16
2 3 8 19 6 5 4 5 4 5 4 7 6 6 5 7 4 3 3 2 2 3 5 2 3 4 7 6 4 4 7 14 19 14 11 10 10 12 14 15 17 17 18 18
4 2 4 3 3 4 5 8 3 4 8 8 6 4 6 5 4 3 3 4 3 4 3 4 5 5 5 3 3 3 6 11 14 15 11 10 11 12 14 17 18 19 19 19
2 0 2 2 2 3 1 2 2 3 7 15 12 7 3 4 3 3 4 2 3 3 3 6 1 11 9 7 5 5 7 10 13 13 11 11 11 14 16 17 20 22 21 20
1 1 1 1 2 2 3 1 2 4 9 15 9 4 3 2 3 2 4 4 4 5 4 1 9 14 9 5 8 7 7 10 13 14 13 13 13 16 18 19 21 20 19 16
1 1 1 0 2 0 1 2 1 6 11 10 4 3 3 3 3 4 7 6 6 0 1 9 13 10 7 2 8 7 7 8 11 13 14 15 17 19 21 22 21 19 16 14
3 1 0 2 2 3 4 6 2 6 10 1 2 4 2 2 3 4 3 3 2 3 8 14 16 13 9 4 3 6 7 9 12 15 16 16 20 22 23 23 21 18 15 13
Wind_Direction
243 241 239 258 282 325 227 198 238 232 186 242 221 246 228 251 227 207 263 283 282 297 327 301 306 301 324 355 328 325 19 312 207 121 0 315 306 325 314 261 226 321 310 114
243 245 231 241 256 285 192 237 255 201 182 246 219 209 249 245 216 217 216 266 250 304 300 304 274 275 9 327 329 352 2 255 194 176 224 216 274 335 328 302 338 322 311 92
240 242 229 230 237 246 206 234 232 191 213 263 279 277 252 237 222 247 235 273 260 267 266 236 294 287 268 309 329 324 300 296 301 277 14 341 205 220 227 303 297 60 46 80
235 240 235 224 226 231 200 213 243 218 206 222 227 223 288 245 233 224 223 242 242 279 278 271 259 264 244 196 225 243 345 308 341 333 15 285 293 278 212 221 268 296 30 13
228 236 242 217 221 217 204 235 237 228 279 247 215 197 240 243 222 234 214 241 276 254 263 302 305 312 250 208 157 183 232 297 312 265 53 330 301 267 246 234 270 282 282 298
222 230 240 218 216 211 224 238 244 257 154 214 221 221 252 254 219 214 251 273 275 254 293 312 299 279 279 309 306 194 232 292 324 319 272 254 258 247 222 207 210 235 233 342
219 225 234 222 213 218 219 225 196 231 254 229 223 243 234 234 227 281 221 232 252 35 134 327 278 222 244 228 168 248 234 217 191 295 240 225 201 24 347 224 227 227 256 4
217 223 226 234 215 220 229 228 202 228 268 257 243 233 230 213 212 230 253 212 271 172 299 277 262 204 225 199 204 226 250 252 233 255 236 292 180 213 169 182 240 226 242 254
218 220 222 228 219 220 229 229 216 217 291 225 238 195 209 237 224 190 194 238 204 194 271 256 266 264 10 190 179 205 252 257 267 198 263 271 56 135 167 201 243 115 337 274
218 216 217 222 228 221 224 232 217 208 250 262 201 218 199 179 218 310 145 167 172 198 233 249 258 268 347 269 238 178 180 214 228 236 277 284 105 132 153 196 85 356 314 289
218 213 214 218 224 225 221 232 221 207 248 272 249 237 198 176 216 254 134 158 188 184 233 259 237 265 115 274 179 209 197 190 200 213 230 262 144 125 233 84 102 52 354 326
216 212 210 214 218 225 223 233 222 222 236 261 277 253 237 224 213 187 190 343 167 208 252 239 304 246 215 298 270 204 238 250 331 236 243 65 191 45 153 108 93 64 46 110
217 212 209 210 212 217 221 232 221 215 252 270 258 254 243 231 224 213 216 225 207 216 203 328 333 259 214 252 238 262 231 205 241 318 196 239 231 227 227 205 163 339 9 156
215 210 208 207 206 211 220 229 221 206 226 270 215 245 237 233 222 217 220 238 231 230 188 245 264 269 191 285 322 255 0 161 224 254 270 240 240 212 227 232 237 251 236 182
216 215 203 206 204 208 215 230 233 219 207 312 304 271 247 229 219 218 221 220 204 199 218 217 237 268 248 207 283 241 187 195 195 263 96 46 94 139 191 213 215 204 195 176
202 206 204 197 200 203 202 237 242 221 216 277 264 247 237 214 200 196 198 200 201 207 247 245 232 244 262 274 256 266 202 219 226 286 160 117 147 153 158 186 203 195 186 184
187 196 197 193 198 200 182 208 227 201 190 220 245 200 222 185 166 169 183 194 197 203 241 243 266 207 210 261 248 252 211 226 214 213 175 167 187 230 210 194 187 179 175 170
138 197 189 193 201 213 201 186 76 171 174 213 242 165 191 170 160 152 173 171 186 209 246 242 234 188 222 252 246 253 240 237 216 214 207 196 178 191 183 172 167 166 167 169
184 184 189 181 193 206 201 195 180 171 181 236 201 195 182 159 134 118 148 176 196 210 233 221 206 207 227 236 261 255 230 220 236 201 207 207 200 189 178 171 167 172 168 167
179 143 155 171 175 179 190 165 179 202 208 221 243 158 144 165 166 136 134 211 238 221 193 156 224 253 255 253 250 243 235 224 214 172 188 198 202 196 189 183 177 178 172 164
228 182 117 135 153 151 163 160 172 181 216 203 207 180 145 180 159 130 200 187 188 239 149 233 247 265 243 249 242 239 226 225 211 209 218 205 212 196 186 181 179 177 174 169
177 120 124 147 156 155 171 180 181 195 201 168 167 176 130 143 126 111 188 197 177 245 140 231 257 251 259 241 261 273 207 201 207 210 199 190 187 189 189 186 182 177 173 171
121 98 139 155 164 193 203 186 188 183 164 160 151 135 124 125 145 122 161 194 207 127 208 238 241 315 321 274 212 177 161 172 184 186 187 185 187 186 189 183 179 175 173 173
157 154 175 224 181 261 346 348 107 105 134 150 146 117 147 138 143 137 177 127 167 205 232 234 335 344 327 247 212 182 177 177 189 192 190 192 192 188 182 183 179 177 177 178
154 172 215 206 2 354 4 34 89 108 146 148 117 105 159 138 136 180 120 164 222 224 234 312 342 335 331 242 213 203 197 196 199 202 198 194 188 185 180 179 179 180 181 185
61 248 263 138 274 286 17 6 69 153 156 143 132 141 175 179 153 168 209 179 215 185 264 320 336 348 346 265 209 209 211 206 200 193 192 190 187 185 183 179 182 185 191 199
5 31 32 22 39 36 59 30 27 171 159 167 163 193 149 110 190 219 200 214 68 41 40 31 20 8 354 353 220 211 216 213 204 200 197 193 189 188 188 188 189 194 202 212